Terminal Aerodrome Forecast
Issued by NWS Omaha/Valley, NE

Home | Current Version | Previous Version | Graphics & Text | Print | Product List | Glossary On
Versions: 1 2 3 4 5 6 7 8 9 10 11 12 13 14 15 16 17 18 19 20 21 22 23 24 25 26 27 28 29 30 31 32 33 34 35 36 37 38 39
000
FTUS43 KOAX 252042 AAB
TAFOFK
TAF AMD
KOFK 252042Z 2521/2618 08011KT P6SM BKN015 OVC040
      TEMPO 2521/2524 SCT025 OVC040
     FM260000 08010KT P6SM SCT015 BKN080
      TEMPO 2609/2613 5SM BR=

USA.gov is the U.S. government's official web portal to all federal, state and local government web resources and services.